TimeEDT,TemperatureF,Dew PointF,Humidity,Sea Level PressureIn,VisibilityMPH,Wind Direction,Wind SpeedMPH,Gust SpeedMPH,PrecipitationIn,Events,Conditions,WindDirDegrees,DateUTC
12:15 AM,73.4,69.8,88,29.80,10.0,ESE,8.1,-,0.02,Rain,Light Rain,110,2013-05-03 04:15:00
12:53 AM,73.9,71.1,91,29.78,10.0,Variable,3.5,-,0.02,,Scattered Clouds,0,2013-05-03 04:53:00
1:03 AM,73.4,71.6,94,29.78,10.0,SSE,4.6,-,N/A,,Mostly Cloudy,150,2013-05-03 05:03:00
1:10 AM,73.4,69.8,88,29.78,10.0,South,5.8,-,N/A,,Scattered Clouds,180,2013-05-03 05:10:00
1:53 AM,72.0,70.0,93,29.76,10.0,WSW,4.6,-,N/A,,Partly Cloudy,240,2013-05-03 05:53:00
2:27 AM,71.6,69.8,94,29.75,10.0,WSW,4.6,-,N/A,,Partly Cloudy,250,2013-05-03 06:27:00
2:46 AM,69.8,69.8,100,29.75,10.0,WSW,5.8,-,N/A,,Mostly Cloudy,240,2013-05-03 06:46:00
2:53 AM,69.8,69.8,100,29.75,10.0,SW,6.9,-,N/A,,Mostly Cloudy,220,2013-05-03 06:53:00
3:53 AM,69.1,68.0,96,29.75,8.0,WSW,6.9,-,0.00,,Light Drizzle,250,2013-05-03 07:53:00
4:31 AM,69.8,68.0,94,29.76,9.0,West,8.1,-,0.00,,Overcast,260,2013-05-03 08:31:00
4:53 AM,69.1,68.0,96,29.77,8.0,West,9.2,-,0.00,,Overcast,260,2013-05-03 08:53:00
5:18 AM,69.8,68.0,94,29.76,8.0,WSW,6.9,-,N/A,,Scattered Clouds,250,2013-05-03 09:18:00
5:53 AM,69.1,66.9,93,29.77,10.0,WSW,5.8,-,N/A,,Partly Cloudy,250,2013-05-03 09:53:00
6:53 AM,69.1,66.9,93,29.78,10.0,Calm,Calm,-,N/A,,Partly Cloudy,0,2013-05-03 10:53:00
7:53 AM,70.0,68.0,93,29.78,10.0,SSW,4.6,-,N/A,,Partly Cloudy,210,2013-05-03 11:53:00
8:53 AM,73.0,69.1,87,29.78,10.0,SW,8.1,-,N/A,,Scattered Clouds,220,2013-05-03 12:53:00
9:53 AM,75.0,68.0,79,29.79,10.0,WSW,9.2,-,N/A,,Partly Cloudy,240,2013-05-03 13:53:00
10:53 AM,78.1,68.0,71,29.79,10.0,WSW,11.5,-,N/A,,Partly Cloudy,250,2013-05-03 14:53:00
11:53 AM,81.0,66.0,60,29.79,10.0,WSW,9.2,-,N/A,,Partly Cloudy,250,2013-05-03 15:53:00
12:53 PM,82.0,66.0,58,29.77,10.0,Variable,5.8,-,N/A,,Partly Cloudy,0,2013-05-03 16:53:00
1:53 PM,84.0,64.9,53,29.75,10.0,West,10.4,-,N/A,,Partly Cloudy,270,2013-05-03 17:53:00
2:53 PM,81.0,70.0,69,29.73,10.0,SE,8.1,-,N/A,,Mostly Cloudy,130,2013-05-03 18:53:00
3:53 PM,81.0,69.1,67,29.71,10.0,SSE,13.8,-,N/A,,Mostly Cloudy,150,2013-05-03 19:53:00
4:53 PM,82.0,70.0,67,29.69,10.0,South,12.7,-,N/A,,Mostly Cloudy,170,2013-05-03 20:53:00
5:53 PM,80.1,66.0,62,29.70,10.0,WSW,6.9,-,N/A,,Mostly Cloudy,240,2013-05-03 21:53:00
6:53 PM,78.1,68.0,71,29.70,10.0,West,5.8,-,0.00,,Mostly Cloudy,280,2013-05-03 22:53:00
7:53 PM,78.1,66.9,68,29.71,10.0,SSW,4.6,-,N/A,,Mostly Cloudy,210,2013-05-03 23:53:00
8:53 PM,78.1,66.0,66,29.74,10.0,WSW,5.8,-,0.00,,Light Drizzle,250,2013-05-04 00:53:00
9:53 PM,75.0,70.0,84,29.75,10.0,WNW,5.8,-,0.00,,Mostly Cloudy,290,2013-05-04 01:53:00
10:53 PM,73.9,71.1,91,29.75,10.0,Calm,Calm,-,0.00,,Scattered Clouds,0,2013-05-04 02:53:00
11:53 PM,73.9,71.1,91,29.74,10.0,WSW,4.6,-,N/A,,Partly Cloudy,250,2013-05-04 03:53:00